Temp
-9 -9 -9 -9 -8 -8 -8 -8 -8 -8 -8 -8 -8 -8 -8 -8 -8 -8 -8 -8 -8 -8 -8 -8 -8 -9 -9 -9 -9 -9 -9 -9 -9 -9 -9 -9 -9 -9 -9 -9 -9 -9 -9 -9 -9
-9 -9 -9 -8 -8 -8 -8 -8 -8 -8 -8 -8 -8 -8 -8 -8 -8 -8 -8 -8 -8 -8 -8 -8 -9 -9 -9 -9 -9 -9 -9 -9 -9 -9 -9 -9 -9 -9 -9 -9 -9 -9 -9 -9 -9
-9 -9 -9 -8 -8 -8 -8 -8 -8 -8 -8 -8 -8 -8 -8 -8 -8 -8 -8 -8 -8 -8 -9 -9 -9 -9 -9 -9 -9 -9 -9 -9 -9 -9 -9 -9 -10 -10 -10 -10 -9 -9 -9 -9 -9
-9 -9 -8 -8 -8 -8 -8 -8 -8 -8 -8 -8 -8 -8 -8 -8 -9 -9 -9 -9 -9 -9 -9 -9 -9 -9 -9 -9 -9 -8 -9 -9 -9 -9 -9 -10 -10 -9 -10 -11 -10 -10 -9 -10 -10
-9 -9 -9 -9 -9 -8 -9 -8 -8 -8 -8 -8 -8 -8 -8 -8 -9 -9 -9 -9 -9 -9 -9 -9 -9 -9 -9 -9 -9 -9 -9 -9 -9 -9 -10 -10 -10 -9 -10 -11 -10 -10 -10 -10 -10
-9 -9 -9 -9 -9 -9 -9 -9 -9 -9 -9 -8 -8 -8 -8 -9 -9 -9 -9 -9 -9 -9 -9 -9 -9 -9 -9 -9 -9 -9 -9 -9 -9 -10 -10 -10 -10 -9 -10 -10 -10 -10 -10 -10 -10
-9 -9 -9 -9 -9 -9 -9 -9 -9 -9 -9 -9 -9 -9 -9 -9 -9 -9 -9 -10 -9 -9 -9 -9 -9 -10 -10 -10 -10 -10 -10 -9 -9 -10 -10 -10 -9 -10 -11 -10 -11 -11 -10 -10 -10
-10 -10 -9 -9 -9 -9 -9 -9 -9 -9 -9 -9 -9 -9 -9 -9 -9 -9 -9 -9 -10 -10 -9 -9 -9 -10 -10 -10 -9 -10 -10 -10 -10 -10 -10 -10 -9 -10 -10 -10 -10 -11 -11 -11 -11
-10 -9 -9 -9 -9 -9 -9 -9 -9 -9 -9 -9 -9 -9 -9 -9 -10 -10 -10 -10 -10 -10 -10 -10 -10 -10 -10 -10 -10 -10 -11 -10 -10 -10 -10 -10 -10 -10 -10 -9 -9 -10 -11 -10 -10
-10 -10 -10 -10 -10 -10 -10 -9 -9 -9 -9 -9 -9 -9 -10 -10 -10 -10 -10 -10 -10 -10 -10 -10 -10 -10 -10 -10 -10 -11 -10 -10 -10 -10 -10 -10 -9 -10 -10 -9 -9 -9 -10 -10 -10
-11 -11 -10 -11 -10 -10 -10 -10 -10 -10 -10 -10 -10 -10 -10 -10 -10 -10 -10 -10 -10 -10 -10 -10 -10 -10 -11 -11 -10 -10 -10 -10 -10 -11 -10 -10 -9 -9 -10 -9 -9 -9 -9 -9 -10
-11 -11 -11 -11 -11 -11 -10 -10 -10 -10 -10 -10 -10 -10 -11 -10 -9 -10 -10 -10 -10 -10 -11 -10 -9 -11 -11 -11 -11 -10 -10 -10 -10 -11 -10 -9 -8 -9 -9 -10 -10 -10 -10 -10 -10
-11 -11 -11 -11 -11 -11 -11 -11 -10 -10 -10 -10 -10 -10 -10 -10 -9 -10 -10 -10 -10 -10 -11 -10 -10 -11 -11 -11 -11 -11 -11 -11 -11 -11 -10 -9 -7 -8 -9 -9 -10 -10 -10 -10 -10
-12 -12 -12 -12 -12 -11 -11 -10 -10 -10 -9 -9 -9 -9 -10 -10 -10 -10 -11 -11 -11 -11 -11 -10 -11 -11 -11 -11 -12 -10 -12 -11 -11 -11 -10 -10 -5 -6 -8 -9 -10 -10 -11 -10 -10
-12 -12 -12 -12 -12 -11 -11 -11 -11 -11 -9 -10 -9 -9 -9 -10 -10 -11 -11 -12 -12 -12 -12 -11 -11 -12 -12 -12 -12 -11 -12 -12 -12 -12 -11 -9 -10 -6 -7 -8 -9 -10 -10 -11 -11
-13 -12 -12 -12 -12 -12 -11 -11 -11 -11 -9 -11 -10 -10 -10 -9 -10 -10 -11 -11 -12 -12 -12 -11 -12 -12 -13 -13 -13 -13 -13 -13 -13 -13 -12 -11 -12 -4 -8 -9 -10 -10 -10 -10 -10
-12 -12 -12 -12 -12 -12 -12 -12 -11 -10 -10 -10 -10 -10 -10 -11 -11 -11 -11 -11 -12 -12 -12 -12 -12 -12 -13 -13 -13 -14 -14 -14 -14 -14 -13 -12 -13 -7 -10 -10 -10 -11 -11 -11 -11
-13 -13 -13 -12 -12 -12 -12 -12 -11 -9 -9 -10 -11 -11 -11 -12 -12 -12 -11 -11 -13 -14 -13 -13 -12 -14 -13 -14 -14 -14 -14 -15 -15 -14 -13 -13 -12 -10 -10 -11 -11 -11 -12 -12 -12
-14 -14 -13 -13 -14 -14 -15 -14 -11 -10 -11 -12 -11 -11 -11 -12 -14 -13 -13 -12 -13 -14 -15 -15 -14 -14 -14 -15 -15 -14 -14 -14 -15 -15 -15 -13 -12 -11 -10 -10 -10 -11 -11 -13 -13
-14 -14 -13 -14 -15 -14 -15 -13 -12 -12 -13 -14 -14 -13 -12 -12 -15 -15 -14 -12 -13 -14 -15 -16 -17 -14 -15 -16 -15 -15 -15 -15 -15 -16 -16 -15 -13 -12 -11 -11 -11 -11 -11 -12 -13
-14 -14 -14 -14 -14 -14 -14 -14 -13 -13 -15 -15 -15 -15 -15 -14 -16 -16 -15 -14 -14 -16 -17 -17 -18 -16 -16 -15 -16 -16 -16 -16 -17 -17 -16 -16 -15 -13 -12 -12 -11 -12 -12 -13 -13
-16 -14 -14 -15 -15 -14 -14 -15 -15 -15 -15 -16 -16 -16 -16 -16 -16 -16 -16 -16 -16 -16 -17 -18 -19 -19 -17 -16 -17 -17 -16 -16 -17 -17 -17 -18 -16 -13 -13 -14 -14 -13 -14 -15 -16
-16 -16 -16 -17 -16 -16 -16 -16 -16 -15 -15 -16 -18 -17 -16 -16 -16 -16 -16 -16 -17 -19 -19 -18 -19 -20 -20 -19 -17 -17 -16 -17 -17 -17 -18 -18 -16 -14 -14 -14 -14 -14 -15 -16 -17
-17 -17 -17 -17 -17 -17 -17 -17 -17 -17 -17 -18 -19 -19 -19 -19 -18 -18 -18 -18 -18 -19 -19 -20 -20 -19 -19 -19 -19 -19 -18 -17 -17 -18 -17 -17 -17 -15 -15 -15 -15 -16 -16 -17 -17
-18 -18 -18 -18 -17 -18 -18 -18 -18 -18 -19 -18 -18 -18 -19 -20 -19 -19 -21 -19 -20 -20 -19 -20 -20 -20 -19 -19 -19 -19 -18 -18 -17 -16 -18 -16 -16 -16 -17 -17 -17 -17 -17 -17 -17
-20 -19 -20 -19 -19 -19 -19 -19 -20 -19 -19 -19 -19 -20 -20 -20 -21 -21 -21 -21 -21 -21 -21 -21 -20 -21 -21 -21 -21 -20 -20 -19 -18 -18 -18 -19 -19 -19 -19 -20 -18 -17 -18 -18 -17
-22 -21 -21 -21 -21 -21 -21 -21 -21 -21 -21 -21 -21 -21 -21 -22 -22 -22 -23 -22 -22 -22 -22 -22 -21 -21 -22 -21 -21 -21 -20 -20 -20 -20 -20 -21 -21 -21 -21 -19 -18 -19 -18 -17 -17
Height
5884 5885 5886 5887 5887 5888 5889 5889 5889 5888 5888 5888 5887 5887 5887 5886 5885 5885 5885 5885 5884 5883 5882 5881 5880 5879 5878 5877 5876 5875 5873 5871 5870 5869 5868 5867 5865 5864 5864 5863 5861 5859 5857 5855 5854
5881 5882 5882 5883 5883 5884 5885 5885 5885 5885 5885 5885 5885 5884 5884 5884 5883 5882 5882 5881 5880 5880 5879 5878 5877 5876 5874 5873 5872 5871 5870 5868 5867 5866 5864 5863 5862 5861 5860 5859 5858 5856 5854 5853 5851
5876 5876 5877 5878 5879 5879 5880 5880 5880 5880 5880 5880 5880 5880 5880 5880 5879 5878 5877 5876 5876 5875 5874 5873 5872 5871 5870 5868 5867 5867 5865 5863 5862 5861 5859 5858 5858 5856 5855 5853 5854 5853 5851 5850 5848
5871 5871 5872 5873 5873 5874 5874 5874 5874 5874 5874 5874 5873 5874 5875 5876 5875 5872 5872 5871 5870 5869 5869 5867 5866 5865 5864 5863 5861 5862 5860 5857 5858 5854 5853 5852 5852 5851 5850 5846 5849 5847 5846 5845 5844
5865 5866 5867 5867 5868 5869 5869 5869 5869 5868 5868 5868 5867 5867 5868 5871 5867 5867 5865 5864 5864 5863 5862 5861 5860 5857 5858 5857 5854 5855 5854 5851 5851 5849 5847 5844 5846 5844 5846 5840 5839 5840 5841 5839 5837
5858 5859 5860 5860 5861 5861 5862 5862 5862 5861 5860 5860 5860 5860 5862 5865 5862 5859 5858 5857 5857 5856 5855 5854 5852 5849 5849 5849 5845 5846 5847 5847 5845 5842 5838 5835 5838 5837 5841 5833 5833 5831 5833 5833 5832
5849 5850 5852 5853 5853 5854 5854 5854 5854 5854 5853 5852 5852 5852 5856 5858 5856 5853 5851 5850 5849 5848 5847 5844 5842 5840 5839 5840 5837 5836 5836 5837 5840 5835 5828 5824 5833 5834 5829 5826 5826 5824 5823 5824 5825
5841 5842 5843 5844 5845 5845 5845 5846 5846 5845 5846 5845 5844 5845 5848 5850 5848 5846 5845 5843 5841 5840 5839 5836 5833 5830 5831 5831 5829 5826 5826 5827 5833 5826 5821 5815 5823 5828 5820 5818 5819 5817 5816 5814 5815
5832 5833 5834 5835 5836 5837 5836 5837 5837 5837 5837 5837 5836 5835 5840 5841 5841 5839 5838 5836 5834 5833 5830 5828 5823 5822 5823 5821 5819 5820 5813 5813 5819 5819 5811 5807 5807 5820 5816 5810 5812 5811 5809 5807 5807
5823 5824 5825 5826 5827 5828 5828 5828 5828 5828 5828 5828 5827 5829 5829 5831 5830 5831 5830 5829 5827 5824 5823 5821 5813 5813 5819 5815 5807 5807 5800 5803 5805 5813 5803 5794 5793 5801 5805 5803 5804 5804 5803 5800 5798
5813 5814 5815 5816 5817 5818 5819 5818 5819 5817 5818 5818 5817 5817 5819 5819 5818 5822 5821 5819 5817 5816 5815 5809 5804 5810 5812 5805 5800 5796 5794 5791 5799 5803 5788 5785 5777 5783 5792 5793 5794 5794 5792 5792 5790
5804 5804 5804 5806 5807 5807 5808 5807 5806 5804 5804 5806 5808 5804 5809 5807 5805 5810 5810 5808 5806 5805 5805 5800 5795 5805 5800 5797 5792 5788 5786 5784 5782 5787 5777 5773 5768 5767 5772 5782 5785 5782 5782 5781 5780
5793 5794 5794 5794 5794 5795 5795 5796 5795 5792 5788 5797 5795 5792 5797 5796 5794 5798 5796 5794 5794 5792 5795 5787 5785 5789 5786 5786 5784 5782 5775 5775 5769 5770 5766 5761 5751 5757 5761 5769 5772 5773 5771 5770 5769
5780 5782 5783 5782 5784 5783 5783 5783 5784 5782 5776 5779 5782 5784 5784 5784 5784 5782 5781 5782 5781 5781 5781 5774 5783 5777 5773 5771 5775 5765 5771 5763 5759 5756 5749 5752 5735 5743 5754 5753 5760 5760 5756 5757 5756
5768 5770 5772 5771 5770 5771 5772 5773 5773 5774 5764 5766 5767 5771 5773 5772 5769 5770 5769 5768 5768 5768 5768 5768 5767 5767 5764 5766 5759 5758 5755 5753 5750 5745 5740 5735 5730 5729 5737 5741 5743 5749 5748 5746 5744
5757 5758 5759 5760 5759 5760 5761 5763 5763 5763 5749 5752 5755 5755 5756 5755 5756 5756 5755 5754 5753 5752 5752 5754 5754 5752 5753 5750 5747 5745 5742 5739 5735 5732 5727 5731 5730 5720 5728 5723 5727 5731 5732 5736 5736
5742 5745 5745 5744 5745 5746 5747 5749 5750 5744 5745 5742 5740 5743 5743 5740 5738 5737 5738 5738 5736 5735 5737 5737 5737 5737 5737 5734 5734 5732 5729 5721 5714 5713 5714 5724 5713 5712 5711 5715 5710 5710 5712 5713 5715
5728 5729 5730 5732 5730 5730 5731 5732 5731 5731 5733 5733 5730 5727 5725 5723 5725 5724 5723 5725 5724 5720 5719 5716 5721 5724 5726 5723 5720 5718 5714 5708 5696 5701 5703 5705 5695 5708 5710 5707 5704 5701 5698 5697 5695
5712 5714 5716 5718 5716 5714 5714 5714 5712 5715 5715 5714 5715 5711 5714 5711 5706 5706 5706 5710 5708 5707 5704 5700 5701 5705 5706 5707 5706 5704 5700 5702 5682 5680 5674 5686 5689 5696 5704 5697 5692 5687 5683 5682 5682
5695 5698 5704 5701 5700 5698 5694 5698 5697 5699 5697 5693 5695 5695 5698 5695 5686 5687 5689 5695 5692 5691 5686 5683 5675 5692 5690 5686 5688 5684 5684 5679 5673 5659 5657 5659 5672 5680 5691 5683 5677 5673 5669 5670 5670
5673 5677 5684 5683 5678 5675 5675 5681 5681 5684 5682 5677 5674 5672 5676 5676 5671 5669 5668 5674 5675 5677 5673 5662 5655 5662 5668 5672 5671 5665 5660 5660 5656 5650 5639 5637 5646 5678 5670 5666 5661 5659 5656 5656 5655
5654 5657 5663 5661 5657 5654 5661 5670 5669 5671 5665 5658 5654 5654 5656 5658 5653 5653 5653 5656 5662 5657 5649 5646 5632 5626 5640 5654 5650 5644 5644 5642 5633 5634 5627 5619 5617 5663 5655 5649 5648 5645 5642 5640 5642
5634 5638 5640 5637 5635 5638 5642 5643 5639 5650 5647 5635 5630 5632 5635 5631 5624 5630 5634 5645 5640 5636 5630 5628 5617 5606 5606 5622 5636 5627 5634 5625 5619 5613 5605 5601 5603 5642 5637 5636 5635 5631 5631 5628 5626
5616 5618 5619 5615 5620 5616 5617 5619 5617 5626 5622 5618 5610 5610 5613 5610 5613 5602 5607 5617 5620 5615 5615 5609 5598 5593 5590 5598 5606 5602 5610 5608 5602 5588 5588 5583 5587 5614 5625 5621 5622 5617 5611 5608 5606
5595 5597 5596 5596 5600 5598 5596 5595 5598 5600 5598 5602 5595 5593 5591 5586 5591 5587 5587 5589 5596 5594 5594 5592 5581 5576 5575 5580 5584 5580 5585 5588 5579 5576 5562 5569 5565 5580 5594 5604 5599 5597 5594 5588 5584
5572 5576 5576 5578 5576 5574 5576 5577 5576 5578 5578 5580 5577 5574 5571 5569 5567 5566 5568 5571 5574 5579 5577 5577 5566 5561 5554 5559 5560 5555 5560 5562 5562 5560 5549 5546 5539 5557 5562 5564 5568 5572 5567 5558 5559
5551 5551 5551 5558 5558 5555 5558 5556 5557 5553 5556 5556 5558 5551 5550 5546 5542 5542 5544 5550 5549 5552 5560 5552 5546 5542 5530 5541 5535 5527 5538 5543 5538 5539 5533 5523 5528 5529 5527 5530 5539 5540 5532 5533 5535
Wind_Speed
18 16 14 13 13 14 13 13 14 14 14 15 15 17 16 15 16 17 17 17 17 18 18 19 20 21 22 21 20 20 19 19 17 16 15 14 15 14 13 13 14 14 13 14 12
21 20 19 19 19 19 18 18 19 19 19 19 19 19 19 19 21 21 21 22 22 23 24 24 25 25 26 26 26 25 24 23 24 23 22 20 18 17 17 14 13 14 15 14 14
25 26 26 25 25 24 24 24 24 24 24 25 24 24 24 25 26 26 26 26 27 28 28 29 29 30 29 29 29 28 27 30 28 28 28 27 24 22 21 19 16 17 16 16 16
31 31 31 31 31 30 30 30 30 30 31 31 30 28 27 26 28 30 30 30 30 32 33 34 34 33 33 33 33 32 30 33 31 32 32 31 29 30 26 22 23 22 19 19 19
38 38 37 37 37 36 36 36 35 35 35 34 34 34 31 27 30 32 33 33 33 34 35 36 36 38 36 37 37 36 34 35 34 35 34 34 33 34 26 26 31 27 24 24 24
42 41 41 40 40 39 39 37 37 36 34 33 33 34 32 27 31 32 33 34 34 35 35 36 39 40 40 38 41 39 37 34 34 35 37 40 35 34 23 33 32 33 29 29 27
42 42 41 40 39 38 37 36 36 37 37 37 37 36 32 28 30 34 35 34 35 36 37 39 40 41 40 37 39 38 38 36 30 32 39 43 31 27 31 35 33 34 36 33 30
42 42 41 41 40 40 41 40 40 40 39 39 40 39 35 33 35 37 40 39 37 37 37 39 42 42 37 37 38 38 36 32 23 33 40 44 31 23 34 35 34 37 37 39 36
46 45 45 44 43 43 43 43 41 42 42 43 44 44 41 38 37 40 40 40 41 39 39 38 42 41 36 37 38 35 40 39 32 31 38 43 42 27 31 38 34 32 36 39 39
47 47 46 45 45 44 44 45 46 46 45 47 49 48 47 44 43 41 41 42 42 41 40 41 45 44 37 37 42 41 48 44 42 32 40 47 47 39 35 38 36 31 28 34 39
49 48 50 49 49 48 48 48 50 52 50 50 52 52 51 50 49 45 43 44 44 44 42 46 50 43 36 42 46 47 48 49 43 38 50 50 55 50 42 38 35 34 35 32 32
53 52 52 52 52 51 51 53 54 56 54 53 52 55 52 52 50 49 48 48 47 46 46 47 50 41 45 44 47 50 51 52 48 40 53 56 58 59 55 43 39 37 37 35 34
54 53 51 50 48 46 47 50 54 54 54 49 54 56 52 52 50 49 49 49 49 49 45 49 49 46 48 49 49 48 52 51 56 53 54 56 55 56 52 44 40 36 34 35 37
55 53 51 51 51 51 51 51 53 52 56 52 47 48 47 47 45 45 43 43 43 43 42 47 38 41 44 46 40 52 42 50 55 56 59 54 56 53 48 49 44 41 38 36 37
56 55 55 55 55 55 51 51 50 50 55 53 50 47 48 49 49 47 46 45 48 48 50 50 50 50 50 48 51 54 53 52 55 58 64 62 64 58 54 49 46 41 40 38 34
53 56 58 58 58 58 57 55 54 55 63 59 57 54 56 57 58 57 56 57 55 55 58 57 54 54 51 49 48 50 51 53 56 60 66 63 61 58 60 61 57 54 55 50 45
56 60 63 65 60 58 61 62 64 69 66 63 64 61 60 62 63 63 64 64 62 61 59 61 59 56 53 53 52 51 53 58 64 64 67 61 65 62 64 63 65 62 57 54 46
59 59 61 62 66 71 67 68 68 72 74 72 67 68 68 67 65 67 69 68 62 59 67 66 70 53 52 50 53 55 56 60 65 65 65 64 69 60 58 60 62 63 63 61 50
65 64 67 66 66 64 62 68 73 71 75 76 77 78 74 72 64 67 69 73 67 60 58 59 68 61 59 55 52 56 59 58 66 67 70 64 61 54 47 52 53 54 58 49 33
66 67 69 71 70 66 68 76 78 79 74 71 74 76 81 78 70 68 69 78 72 70 64 62 66 68 63 60 61 63 60 59 63 71 72 71 61 55 44 48 53 55 55 51 50
80 76 73 73 73 70 72 71 74 76 70 72 74 71 76 77 71 73 75 76 74 68 67 74 72 70 69 67 61 60 60 61 62 66 74 76 65 39 46 46 53 54 52 50 54
84 88 85 83 85 87 77 74 74 77 74 76 79 78 82 80 81 80 82 78 77 80 81 76 76 73 72 70 63 68 68 61 61 63 58 62 68 52 47 49 50 55 57 48 36
85 85 85 85 88 88 88 90 92 87 93 91 90 91 95 95 99 98 98 91 86 73 74 71 70 72 74 73 68 71 68 77 79 72 73 71 67 48 47 48 50 55 56 57 54
84 84 85 83 85 85 84 86 83 81 88 89 83 76 78 79 81 84 86 87 75 66 51 57 68 74 78 73 70 71 65 67 82 87 86 85 81 62 55 48 45 49 52 49 50
81 82 83 83 83 81 80 82 84 79 77 77 80 81 79 76 75 74 61 74 64 56 59 55 64 70 73 72 73 77 74 70 80 83 92 90 90 85 76 63 68 65 58 54 50
77 78 78 78 78 80 80 79 77 79 79 79 79 77 77 75 72 69 69 71 68 64 66 60 64 63 68 73 68 70 64 73 76 81 90 86 80 68 59 56 61 73 63 66 70
74 75 75 76 75 74 75 75 76 77 77 76 76 77 75 75 74 72 71 69 72 73 72 73 77 76 80 65 59 56 53 57 62 63 69 69 68 59 61 64 68 64 67 73 76
Wind_Direction
244 243 249 256 260 270 276 273 278 281 289 291 289 290 291 292 293 294 297 297 298 300 300 299 302 305 306 309 312 316 316 318 321 322 322 321 321 324 323 328 328 332 327 318 316
243 249 258 261 263 268 272 275 276 278 279 282 286 289 288 286 289 290 293 294 295 296 296 296 296 296 298 301 302 304 304 305 307 307 308 307 307 309 310 310 312 314 318 318 315
249 254 261 265 268 270 273 275 276 276 278 280 279 278 281 286 289 289 289 289 291 291 291 292 292 293 292 293 293 298 298 300 300 299 298 298 299 298 297 293 297 298 299 300 302
257 258 261 264 268 268 270 273 276 277 279 280 279 279 279 281 286 285 287 286 287 288 290 290 290 290 292 294 292 297 295 293 297 295 295 294 294 293 293 284 288 286 283 286 288
259 261 262 266 269 270 274 276 275 276 275 276 277 278 279 282 282 284 287 286 286 288 288 289 290 288 291 291 290 293 288 290 290 291 290 288 289 292 297 276 282 284 281 280 280
259 262 264 266 268 270 271 273 275 274 275 275 276 277 279 283 281 284 284 285 287 287 288 289 288 288 287 288 288 289 288 287 289 288 286 283 284 293 293 279 282 283 276 272 274
260 261 263 265 267 269 270 271 272 273 272 273 273 274 276 278 279 281 280 280 283 284 285 286 288 288 289 291 289 290 289 288 291 283 279 279 287 293 282 286 285 281 280 275 273
260 262 263 264 265 266 267 268 269 269 270 270 272 273 277 276 280 280 280 280 280 282 283 283 282 282 288 289 291 292 295 292 278 275 284 285 288 279 281 285 291 286 280 277 275
260 260 261 263 264 264 266 267 265 266 267 269 270 274 275 276 275 277 278 279 280 282 283 285 283 280 280 285 287 295 289 281 281 287 287 285 286 280 275 281 287 289 279 278 276
260 262 261 263 264 264 266 267 268 266 265 268 271 275 277 280 280 278 278 278 279 279 281 284 282 279 282 283 283 277 281 285 288 288 283 281 283 278 274 275 281 286 282 271 272
259 260 262 263 264 265 266 266 267 267 267 267 272 273 277 278 281 281 280 278 277 276 279 277 278 286 287 275 277 278 279 282 290 293 285 282 281 281 277 274 282 284 284 281 284
260 261 263 265 266 267 268 268 268 270 269 269 269 272 273 278 280 282 282 278 276 276 275 278 280 286 279 278 276 277 280 280 280 280 277 282 283 285 285 283 280 277 278 279 281
260 261 263 265 266 266 269 271 271 271 273 268 269 270 273 274 277 278 276 276 276 273 274 270 275 275 275 274 275 277 275 282 279 278 272 278 281 281 282 288 285 281 274 274 280
259 258 260 266 268 269 271 271 273 275 273 273 269 269 271 271 274 276 276 279 277 276 272 272 274 271 270 271 277 269 277 273 275 277 277 273 279 279 281 282 286 278 272 271 274
257 257 261 265 269 269 272 275 275 276 271 274 275 272 273 273 273 270 269 271 274 274 271 275 275 273 270 274 271 272 271 272 271 271 272 271 275 280 284 288 282 284 277 274 272
260 260 264 266 268 271 272 274 277 276 274 277 275 275 274 271 270 271 275 276 275 273 273 274 272 275 275 271 270 272 274 273 271 270 267 271 280 276 283 285 291 287 287 288 286
260 261 262 262 264 273 273 272 271 271 273 275 276 276 274 275 275 276 278 280 282 282 279 278 276 275 275 275 273 272 272 274 272 271 272 274 275 271 276 285 286 290 293 288 284
267 264 262 265 267 269 273 274 271 270 268 274 276 275 273 274 275 276 276 278 280 280 283 283 282 277 280 277 277 278 275 272 274 277 278 273 272 278 284 290 294 296 295 296 292
261 261 266 264 265 269 267 269 269 273 273 274 273 273 272 273 272 274 275 275 274 273 274 276 275 278 279 277 279 280 277 280 275 275 274 275 277 279 284 289 293 294 293 298 297
255 260 263 263 262 257 259 268 268 272 270 269 271 272 273 272 270 269 270 273 273 273 277 282 284 275 275 281 283 285 281 276 275 274 274 275 269 272 280 280 277 281 286 288 293
254 252 251 252 250 247 248 257 261 265 257 256 260 259 263 266 266 267 269 269 271 277 281 287 287 283 281 282 284 279 270 271 271 269 272 274 272 268 264 265 271 275 280 284 291
267 261 261 262 262 260 254 252 250 251 248 259 261 256 264 265 265 266 265 265 275 278 284 288 289 287 287 283 278 273 276 273 272 274 272 275 268 279 263 266 270 272 277 280 275
266 268 267 268 269 270 270 268 272 259 266 276 279 276 275 279 282 279 281 280 286 286 288 288 277 275 273 277 279 275 272 270 273 272 270 271 270 266 256 259 269 275 276 275 273
268 269 269 271 271 273 274 275 276 274 274 275 280 280 281 280 281 283 284 286 283 280 271 269 267 267 271 275 272 269 272 271 273 275 274 270 278 275 264 264 273 275 273 275 275
268 269 269 271 271 273 274 275 276 277 276 275 276 278 280 279 279 279 275 279 274 264 270 265 266 268 269 271 271 271 267 266 270 274 276 281 280 283 286 271 267 271 271 272 267
269 269 269 270 271 272 275 276 277 277 277 277 277 277 278 277 277 274 266 270 269 262 267 262 267 266 269 281 278 268 269 271 270 272 275 282 283 285 281 273 271 270 267 265 265
271 272 271 271 272 273 274 275 277 277 276 277 278 278 277 278 276 273 269 266 266 262 263 260 259 263 270 270 270 273 280 274 272 268 273 275 282 274 266 261 261 256 256 260 262